FW4072 Weather Reports


Display with metric or nautical units.
time (UTC)temp
F
wind
direction
speed
MPH
gust
MPH
rain 1hr
in
rain 24hr
in
rain mn
in
humidity
%
barometer
mb
20260506035502 53 0.0 1.0 0.00 0.00 0.00 55 1015.0
20260506034622 53 0.0 0.0 0.00 0.00 0.00 55 1015.0
20260506033722 53 0.0 1.0 0.00 0.00 0.00 54 1015.0
20260506032800 52 0.0 1.0 0.00 0.00 0.00 54 1014.9
20260506031900 53 0.0 2.0 0.00 0.00 0.00 53 1014.9
20260506030058 52 0.0 2.0 0.00 0.00 0.00 54 1014.7
20260506025158 51 0.0 2.0 0.00 0.00 0.00 55 1014.6
20260506024257 51 0.0 2.0 0.00 0.00 0.00 55 1014.6
20260506023356 51 0.0 1.0 0.00 0.00 0.00 54 1014.6
20260506022456 51 0.0 1.0 0.00 0.00 0.00 54 1014.7
20260506021550 52 0.0 1.0 0.00 0.00 0.00 54 1014.5
20260506020649 51 0.0 1.0 0.00 0.00 0.00 54 1014.6
20260506015748 51 0.0 2.0 0.00 0.00 0.00 54 1014.5
20260506014908 51 0.0 0.0 0.00 0.00 0.00 54 1014.6
20260506013047 52 0.0 0.0 0.00 0.00 0.00 53 1014.6
20260506012208 52 0.0 1.0 0.00 0.00 0.00 52 1014.7
20260506011238 52 0.0 1.0 0.00 0.00 0.00 51 1014.8
20260506010339 53 0.0 0.0 0.00 0.00 0.00 50 1014.9
20260506005437 54 0.0 0.0 0.00 0.00 0.00 48 1014.8
20260506004556 54 0.0 1.0 0.00 0.00 0.00 48 1014.7
20260506003636 54 0.0 1.0 0.00 0.00 0.00 48 1014.8
20260506002737 54 113 1.0 3.0 0.00 0.00 0.00 49 1014.8
20260506001836 54 0.0 2.0 0.00 0.00 0.00 49 1014.9
20260506000034 54 0.0 2.0 0.00 0.00 0.00 49 1014.9
20260505235153 54 0.0 1.0 0.00 0.00 0.00 49 1014.8
20260505234232 54 0.0 1.0 0.00 0.00 0.00 49 1015.0
20260505233326 55 0.0 2.0 0.00 0.00 0.00 49 1015.0
20260505232427 55 0.0 1.0 0.00 0.00 0.00 48 1015.0
20260505231525 55 0.0 2.0 0.00 0.00 0.00 48 1015.0
20260505230624 55 0.0 1.0 0.00 0.00 0.00 49 1015.0
20260505225724 55 0.0 2.0 0.00 0.00 0.00 49 1015.2
20260505224823 56 0.0 2.0 0.00 0.00 0.00 50 1015.2
20260505223022 56 0.0 2.0 0.00 0.00 0.00 51 1015.2
20260505222121 56 0.0 2.0 0.00 0.00 0.00 51 1015.1
20260505221221 56 0.0 1.0 0.00 0.00 0.00 51 1015.3
20260505220320 57 0.0 2.0 0.00 0.00 0.00 52 1015.3
20260505215414 57 135 1.0 2.0 0.00 0.00 0.00 52 1015.4
20260505214514 57 135 1.0 2.0 0.00 0.00 0.00 51 1015.2
20260505213635 58 0.0 1.0 0.00 0.00 0.00 50 1015.3
20260505212713 58 0.0 2.0 0.00 0.00 0.00 50 1015.2
20260505211812 58 135 0.0 3.0 0.00 0.00 0.00 50 1015.2
20260505210911 59 135 1.0 2.0 0.00 0.00 0.00 48 1015.1
20260505205110 59 0.0 0.0 0.00 0.00 0.00 47 1015.1
20260505204211 59 0.0 1.0 0.00 0.00 0.00 47 1015.2
20260505203329 60 0.0 2.0 0.00 0.00 0.00 45 1015.1
20260505202408 60 0.0 2.0 0.00 0.00 0.00 44 1015.1
20260505201502 60 0.0 2.0 0.00 0.00 0.00 43 1014.9
20260505200622 60 0.0 2.0 0.00 0.00 0.00 42 1014.9
20260505195721 61 0.0 1.0 0.00 0.00 0.00 41 1014.9
20260505194800 61 135 1.0 2.0 0.00 0.00 0.00 39 1014.8
20260505193900 62 142 1.0 2.0 0.00 0.00 0.00 38 1014.6
20260505192059 62 0.0 1.0 0.00 0.00 0.00 36 1014.5
20260505191158 63 0.0 1.0 0.00 0.00 0.00 35 1014.4
20260505190257 63 158 1.0 3.0 0.00 0.00 0.00 34 1014.5
20260505185356 64 0.0 1.0 0.00 0.00 0.00 34 1014.3
20260505184456 64 0.0 4.0 0.00 0.00 0.00 33 1014.4
20260505183550 64 135 1.0 2.0 0.00 0.00 0.00 32 1014.3
20260505182649 65 135 1.0 2.0 0.00 0.00 0.00 31 1014.2
20260505181748 65 135 1.0 2.0 0.00 0.00 0.00 30 1014.2
20260505180848 67 119 1.0 3.0 0.00 0.00 0.00 28 1014.0
20260505175046 67 158 1.0 2.0 0.00 0.00 0.00 27 1013.7
20260505173106 70 0.0 2.0 0.00 0.00 0.00 22 1013.7
20260505172221 70 113 1.0 4.0 0.00 0.00 0.00 20 1013.4
20260505171300 71 158 2.0 5.0 0.00 0.00 0.00 17 1013.5
20260505170359 72 135 2.0 4.0 0.00 0.00 0.00 12 1013.3
20260505165459 72 0.0 2.0 0.00 0.00 0.00 10 1013.3
20260505164558 73 0.0 1.0 0.00 0.00 0.00 1013.3
20260505163657 74 0.0 1.0 0.00 0.00 0.00 1013.3
20260505162756 74 135 2.0 4.0 0.00 0.00 0.00 1013.3
20260505161856 75 135 0.0 2.0 0.00 0.00 0.00 1013.3
20260505160115 75 0.0 1.0 0.00 0.00 0.00 1013.1
20260505153348 77 135 1.0 4.0 0.00 0.00 0.00 1013.2
20260505151546 77 0.0 1.0 0.00 0.00 0.00 1013.4
20260505150640 78 0.0 1.0 0.00 0.00 0.00 1013.6
20260505140335 83 135 1.0 2.0 0.00 0.00 0.00 1013.9
20260505124249 87 135 1.0 2.0 0.00 0.00 0.00 1014.6
20260505123328 87 0.0 2.0 0.00 0.00 0.00 1014.6
20260505122428 86 0.0 1.0 0.00 0.00 0.00 1014.7
20260505121527 88 0.0 1.0 0.00 0.00 0.00 1014.6
20260505120628 88 0.0 1.0 0.00 0.00 0.00 1014.7
20260505115746 89 0.0 1.0 0.00 0.00 0.00 1014.6
20260505114845 88 135 1.0 4.0 0.00 0.00 0.00 1014.5
20260505113026 88 158 1.0 2.0 0.00 0.00 0.00 1014.6
20260505112125 87 135 1.0 2.0 0.00 0.00 0.00 1014.5
20260505111223 87 158 1.0 3.0 0.00 0.00 0.00 1014.4
20260505110322 85 113 1.0 3.0 0.00 0.00 0.00 1014.3
20260505101820 86 0.0 2.0 0.00 0.00 0.00 1014.6
20260505100018 86 0.0 1.0 0.00 0.00 0.00 1014.8
20260505095137 84 0.0 2.0 0.00 0.00 0.00 1014.7
20260505094217 84 0.0 2.0 0.00 0.00 0.00 1014.7
20260505093336 83 135 2.0 3.0 0.00 0.00 0.00 1015.0
20260505092415 86 135 1.0 3.0 0.00 0.00 0.00 1014.9
20260505091515 86 158 1.0 2.0 0.00 0.00 0.00 1015.0
20260505090614 86 0.0 2.0 0.00 0.00 0.00 1015.1
20260505085643 84 135 1.0 3.0 0.00 0.00 0.00 1015.2
20260505084744 83 0.0 1.0 0.00 0.00 0.00 1015.2
20260505083841 81 135 1.0 2.0 0.00 0.00 0.00 1015.4
20260505082041 81 135 1.0 3.0 0.00 0.00 0.00 1015.3
20260505081200 80 0.0 1.0 0.00 0.00 0.00 1015.2
20260505080239 81 135 1.0 4.0 0.00 0.00 0.00 1015.3
20260505075338 79 0.0 2.0 0.00 0.00 0.00 11 1015.3
20260505074438 77 0.0 2.0 0.00 0.00 0.00 14 1015.2
20260505073557 76 1.0 2.0 0.00 0.00 0.00 15 1015.3
20260505072638 77 135 1.0 2.0 0.00 0.00 0.00 15 1015.4
20260505071736 76 0.0 1.0 0.00 0.00 0.00 20 1015.4
20260505070835 73 0.0 2.0 0.00 0.00 0.00 26 1015.5
20260505065036 71 0.0 2.0 0.00 0.00 0.00 30 1015.4
20260505064134 70 0.0 1.0 0.00 0.00 0.00 33 1015.4
20260505063233 69 135 1.0 2.0 0.00 0.00 0.00 34 1015.5
20260505062334 69 0.0 2.0 0.00 0.00 0.00 35 1015.4
20260505061432 67 0.0 2.0 0.00 0.00 0.00 38 1015.4
20260505060534 66 0.0 2.0 0.00 0.00 0.00 41 1015.4
20260505055652 64 0.0 1.0 0.00 0.00 0.00 44 1015.2
20260505054750 64 1.0 2.0 0.00 0.00 0.00 44 1015.4
20260505053849 62 0.0 2.0 0.00 0.00 0.00 50 1015.5
20260505052028 60 1.0 2.0 0.00 0.00 0.00 54 1015.4
20260505051148 58 0.0 2.0 0.00 0.00 0.00 57 1015.5
20260505050227 56 0.0 0.0 0.00 0.00 0.00 61 1015.4
20260505041724 49 0.0 1.0 0.00 0.00 0.00 77 1015.3
20260505040823 47 0.0 1.0 0.00 0.00 0.00 79 1015.5